Location: Unspecified
(51.0950°N, 12.9690°E)
Time: 05:39:47
(UTC+00:00)

ATLAS 3B R/B - Pass Details

Date: 27 May 2022
Orbit: 976 x 1218 km, 63.8° (Epoch: 20 June)

Event Time Altitude Azimuth Distance (km) Brightness Sun altitude
Rises 22:01:07 0° 314° (NW) 3,971 6.7 -16.1°
Reaches altitude 10° 22:04:01 10° 305° (NW) 3,043 5.8 -16.2°
Maximum altitude 22:10:22 33° 245° (WSW) 1,862 3.8 -16.5°
Enters shadow 22:14:42 19° 196° (SSW) 2,512 4.1 -16.6°
